Terug naar catalogus

STARLINK-2469

ActiefCommunicatieVLEO
NORAD 48128·PAYLOAD·🇺🇸 United States

Gelanceerd Apr 7, 2021 vanaf Cape Canaveral Space Force Station

Loading…

Volgende Passages (komende 24 uur)

TLE

VersSource: CelesTrak SupGP

Epoch: Sep 15, 2026, 00:49 UTC

1 48128C 21027AN  26258.03451389  .00138650  00000+0  28436-2 0  2586
2 48128  53.0981 303.0603 0004924  37.5211 209.1200 15.45376570    12

Volg STARLINK-2469 in realtime met AllMySat

Download on the App Store